Weather History for Kankakee, IL

Change the Weather History Date:

Tuesday, April 22, 2014

  Actual Average Record
Temperature  
Mean Temperature 48 °F -  
Max Temperature 60 °F 62 °F 83 °F (1985)
Min Temperature 37 °F 40 °F 23 °F (1986)
Degree Days  
Heating Degree Days 16    
Moisture  
Dew Point 39 °F    
Average Humidity 66    
Maximum Humidity 97    
Minimum Humidity 35    
Precipitation  
Precipitation 0.00 in - - ()
Sea Level Pressure  
Sea Level Pressure 29.95 in    
Wind  
Wind Speed 9 mph (NNW)    
Max Wind Speed 15 mph    
Max Gust Speed 23 mph    
Visibility 10 miles    
Events      
Averages and records for this station are not official NWS values.
T = Trace of Precipitation, MM = Missing Value Source: NWS Daily Summary

Daily Weather History Graph

Daily Weather History Graph

Search for Another Location

Airport:

Trip Planner

Search our weather history database for the weather conditions in past years. The results will help you decide how hot, cold, wet, or windy it might be!

Date:

Astronomy

Apr. 22, 2014 Rise Set
Actual Time 6:01 AM CDT 7:38 PM CDT
Civil Twilight 5:32 AM CDT 8:07 PM CDT
Nautical Twilight 4:57 AM CDT 8:43 PM CDT
Astronomical Twilight 4:20 AM CDT 9:20 PM CDT
Moon 1:54 AM CDT (4/22) 12:36 PM CDT (4/22)
Length of Visible Light 14h 35m
Length of Day
13h 37m
Last Quarter, 46% of the Moon is Illuminated
Apr 22
Last Quarter
Apr 29
New
May 6
First Quarter
May 14
Full
May 21
Last Quarter

Hourly Weather History & Observations

Time (CDT) Temp. Windchill Dew Point Humidity Pressure Visibility Wind Dir Wind Speed Gust Speed Precip Events Conditions
12:15 AM 57.2 °F - 55.9 °F 96% 29.84 in 3.0 mi WSW 6.9 mph - N/A   Clear
12:35 AM 57.2 °F - 55.9 °F 96% 29.83 in 5.0 mi West 8.1 mph - N/A   Clear
12:55 AM 56.7 °F - 55.4 °F 96% 29.83 in 5.0 mi West 5.8 mph - N/A   Clear
1:15 AM 56.3 °F - 54.7 °F 94% 29.82 in 5.0 mi West 6.9 mph - N/A   Clear
1:35 AM 55.4 °F - 54.5 °F 97% 29.82 in 4.0 mi West 6.9 mph - N/A   Mostly Cloudy
1:55 AM 55.8 °F - 55.0 °F 97% 29.82 in 4.0 mi WNW 8.1 mph - N/A   Mostly Cloudy
2:15 AM 56.5 °F - 55.4 °F 96% 29.83 in 7.0 mi WNW 8.1 mph - N/A   Scattered Clouds
2:35 AM 57.2 °F - 54.1 °F 89% 29.82 in 10.0 mi NW 6.9 mph - N/A   Clear
2:55 AM 56.8 °F - 52.7 °F 86% 29.83 in 10.0 mi WNW 6.9 mph - N/A   Clear
3:15 AM 56.3 °F - 51.4 °F 84% 29.83 in 10.0 mi NW 9.2 mph - N/A   Clear
3:35 AM 55.8 °F - 50.5 °F 83% 29.84 in 10.0 mi NW 9.2 mph - N/A   Clear
3:55 AM 55.2 °F - 49.6 °F 81% 29.86 in 10.0 mi NNE 15.0 mph 20.7 mph N/A   Mostly Cloudy
4:15 AM 49.8 °F - 41.9 °F 74% 29.87 in 10.0 mi NNE 15.0 mph 21.9 mph N/A   Overcast
4:35 AM 47.5 °F - 41.5 °F 80% 29.89 in 10.0 mi NNE 10.4 mph - N/A   Scattered Clouds
4:55 AM 46.4 °F 40.7 °F 39.2 °F 76% 29.90 in 10.0 mi NNE 12.7 mph - N/A   Clear
5:15 AM 44.6 °F 38.4 °F 37.8 °F 77% 29.91 in 10.0 mi NNE 12.7 mph 20.7 mph N/A   Clear
5:35 AM 43.7 °F 38.1 °F 37.0 °F 77% 29.92 in 10.0 mi NNE 10.4 mph 17.3 mph N/A   Clear
5:55 AM 43.0 °F 36.8 °F 36.5 °F 78% 29.93 in 10.0 mi NNE 11.5 mph 17.3 mph N/A   Clear
6:15 AM 42.8 °F 36.6 °F 36.5 °F 78% 29.94 in 10.0 mi NNE 11.5 mph 16.1 mph N/A   Clear
6:35 AM 42.8 °F 37.5 °F 36.5 °F 78% 29.95 in 10.0 mi NNE 9.2 mph 16.1 mph N/A   Clear
6:55 AM 43.3 °F 39.2 °F 36.9 °F 78% 29.96 in 10.0 mi NNE 6.9 mph - N/A   Clear
7:15 AM 44.1 °F 40.1 °F 37.2 °F 77% 29.96 in 10.0 mi North 6.9 mph - N/A   Clear
7:35 AM 45.0 °F 40.6 °F 37.6 °F 75% 29.96 in 10.0 mi NNE 8.1 mph - N/A   Clear
7:55 AM 45.9 °F 42.3 °F 37.9 °F 74% 29.97 in 10.0 mi North 6.9 mph - N/A   Clear
8:15 AM 47.3 °F - 37.8 °F 69% 29.97 in 10.0 mi North 11.5 mph - N/A   Clear
8:35 AM 47.8 °F - 38.1 °F 69% 29.97 in 10.0 mi North 11.5 mph - N/A   Clear
8:55 AM 48.7 °F - 38.5 °F 68% 29.97 in 10.0 mi North 10.4 mph - N/A   Scattered Clouds
9:15 AM 49.6 °F - 37.8 °F 64% 29.97 in 10.0 mi NW 10.4 mph 16.1 mph N/A   Mostly Cloudy
9:35 AM 50.5 °F - 38.1 °F 62% 29.97 in 10.0 mi NNW 9.2 mph - N/A   Mostly Cloudy
9:55 AM 50.4 °F - 38.1 °F 63% 29.97 in 10.0 mi NW 11.5 mph 18.4 mph N/A   Mostly Cloudy
10:15 AM 50.4 °F - 37.4 °F 61% 29.98 in 10.0 mi NNW 8.1 mph 16.1 mph N/A   Scattered Clouds
10:35 AM 50.9 °F - 36.7 °F 58% 29.99 in 10.0 mi NW 10.4 mph - N/A   Scattered Clouds
10:55 AM 51.3 °F - 37.2 °F 59% 29.99 in 10.0 mi NNW 10.4 mph 16.1 mph N/A   Clear
11:15 AM 52.3 °F - 37.4 °F 57% 30.00 in 10.0 mi NNW 10.4 mph - N/A   Scattered Clouds
11:35 AM 53.1 °F - 37.4 °F 55% 29.99 in 10.0 mi North 11.5 mph - N/A   Scattered Clouds
11:55 AM 52.5 °F - 35.4 °F 52% 29.99 in 10.0 mi NW 6.9 mph - N/A   Scattered Clouds
12:15 PM 53.4 °F - 36.1 °F 52% 29.98 in 10.0 mi NW 9.2 mph - N/A   Clear
12:35 PM 54.0 °F - 36.1 °F 51% 29.97 in 10.0 mi WNW 9.2 mph 16.1 mph N/A   Clear
12:55 PM 55.0 °F - 36.9 °F 50% 29.97 in 10.0 mi NNW 9.2 mph - N/A   Clear
1:15 PM 54.7 °F - 35.8 °F 49% 29.97 in 10.0 mi NNW 8.1 mph - N/A   Clear
1:35 PM 55.4 °F - 36.1 °F 48% 29.97 in 10.0 mi NW 6.9 mph - N/A   Clear
1:55 PM 56.1 °F - 37.9 °F 51% 29.97 in 10.0 mi WNW 9.2 mph 18.4 mph N/A   Clear
2:15 PM 56.5 °F - 36.7 °F 48% 29.96 in 10.0 mi NW 10.4 mph 18.4 mph N/A   Clear
2:35 PM 57.0 °F - 38.7 °F 50% 29.96 in 10.0 mi WNW 10.4 mph 18.4 mph N/A   Clear
2:55 PM 57.2 °F - 36.7 °F 46% 29.96 in 10.0 mi NW 11.5 mph 18.4 mph N/A   Clear
3:15 PM 58.1 °F - 37.0 °F 45% 29.95 in 10.0 mi WNW 12.7 mph 18.4 mph N/A   Clear
3:35 PM 58.6 °F - 36.5 °F 44% 29.95 in 10.0 mi NW 12.7 mph 23.0 mph N/A   Clear
3:55 PM 58.8 °F - 35.8 °F 42% 29.95 in 10.0 mi WNW 12.7 mph 19.6 mph N/A   Clear
4:15 PM 57.9 °F - 33.6 °F 40% 29.95 in 10.0 mi NW 12.7 mph 19.6 mph N/A   Clear
4:35 PM 58.6 °F - 34.3 °F 40% 29.95 in 10.0 mi NW 9.2 mph 17.3 mph N/A   Clear
4:55 PM 59.7 °F - 33.8 °F 38% 29.95 in 10.0 mi NW 12.7 mph 16.1 mph N/A   Clear
5:15 PM 59.4 °F - 32.7 °F 37% 29.96 in 10.0 mi NW 9.2 mph - N/A   Clear
5:35 PM 59.9 °F - 32.7 °F 36% 29.96 in 10.0 mi NNW 12.7 mph 17.3 mph N/A   Clear
5:55 PM 59.4 °F - 31.8 °F 35% 29.96 in 10.0 mi NW 8.1 mph - N/A   Clear
6:15 PM 59.4 °F - 31.8 °F 35% 29.96 in 10.0 mi NW 9.2 mph - N/A   Clear
6:35 PM 54.0 °F - 36.9 °F 52% 29.97 in 10.0 mi NNE 11.5 mph - N/A   Clear
6:55 PM 52.0 °F - 36.7 °F 56% 29.97 in 10.0 mi NE 11.5 mph - N/A   Clear
7:15 PM 48.9 °F - 35.6 °F 60% 29.99 in 10.0 mi NNE 12.7 mph 16.1 mph N/A   Clear
7:35 PM 46.4 °F 40.4 °F 34.7 °F 64% 29.99 in 10.0 mi NNE 13.8 mph 18.4 mph N/A   Clear
7:55 PM 45.5 °F 39.6 °F 33.3 °F 62% 30.01 in 10.0 mi NE 12.7 mph 17.3 mph N/A   Clear
8:15 PM 44.6 °F 39.2 °F 33.3 °F 64% 30.02 in 10.0 mi NNE 10.4 mph 16.1 mph N/A   Clear
8:35 PM 43.7 °F 37.7 °F 33.1 °F 66% 30.03 in 10.0 mi NE 11.5 mph 16.1 mph N/A   Clear
8:55 PM 42.8 °F 37.0 °F 32.5 °F 67% 30.04 in 10.0 mi NNE 10.4 mph 18.4 mph N/A   Clear
9:15 PM 41.7 °F 35.2 °F 32.0 °F 68% 30.05 in 10.0 mi NE 11.5 mph 17.3 mph N/A   Clear
9:35 PM 41.0 °F 34.3 °F 32.0 °F 70% 30.05 in 10.0 mi NE 11.5 mph - N/A   Clear
9:55 PM 40.5 °F 32.8 °F 32.0 °F 72% 30.05 in 10.0 mi NE 13.8 mph - N/A   Clear
10:15 PM 40.1 °F 33.6 °F 31.1 °F 70% 30.06 in 10.0 mi NE 10.4 mph 16.1 mph N/A   Clear
10:35 PM 39.7 °F 32.7 °F 30.9 °F 71% 30.06 in 10.0 mi NE 11.5 mph - N/A   Clear
10:55 PM 39.6 °F 33.0 °F 30.6 °F 70% 30.07 in 10.0 mi NE 10.4 mph - N/A   Clear
11:15 PM 39.0 °F 33.4 °F 30.6 °F 72% 30.07 in 10.0 mi NNE 8.1 mph - N/A   Clear
11:35 PM 38.5 °F 32.7 °F 30.7 °F 74% 30.08 in 10.0 mi NNE 8.1 mph - N/A   Clear
11:55 PM 37.6 °F 33.1 °F 30.6 °F 76% 30.08 in 10.0 mi NE 5.8 mph - N/A   Clear